Consulta les dades en temps real de l'estació municipal de Cercs - St.Jordi
| Hora UTC | 14:50 |
|---|---|
| Temperatura | 17.2 ºC |
| Humitat | 65.2 % |
| Pressió | 1009.2 hPa |
| Pluja | 0.0 mm |
| Velocitat vent | 8.8 km/h |
| Direcció vent | SSW |
| Radiació solar | 634.3 W/m² |
| Temperatura (ºC) | Humitat (%) | Pressió (hPa) | Velocitat vent (km/h) | Precipitació (mm) | Radiació solar (W/m²) | |||||||||||||
|---|---|---|---|---|---|---|---|---|---|---|---|---|---|---|---|---|---|---|
| Hora UTC | Aire | Humitat | Pressió | Vel. | Dir. | Vel. Max | Dir. | Intent. màx 5 min. | Rad. Sol. | |||||||||
| 00:05 | 8.4 | 96.4 | 1012.0 | 0.0 | NNE | 0.0 | N | 0.0 | 0.2 | |||||||||
| 00:10 | 8.3 | 96.2 | 1011.9 | 0.0 | NNE | 0.0 | W | 0.0 | 0.2 | |||||||||
| 00:15 | 8.1 | 96.0 | 1011.8 | 0.0 | NNE | 0.0 | SSW | 0.0 | 0.2 | |||||||||
| 00:20 | 8.1 | 96.1 | 1011.8 | 0.0 | NNE | 0.0 | WSW | 0.0 | 0.1 | |||||||||
| 00:25 | 8.1 | 96.3 | 1011.7 | 0.0 | NNE | 0.0 | NE | 0.0 | 0.2 | |||||||||
| 00:30 | 8.1 | 96.3 | 1011.6 | 0.0 | NNE | 0.0 | WNW | 0.0 | 0.2 | |||||||||
| 00:35 | 7.9 | 95.8 | 1011.5 | 0.0 | NNE | 0.0 | SSW | 0.0 | 0.2 | |||||||||
| 00:40 | 7.8 | 95.8 | 1011.5 | 0.0 | NNE | 0.0 | S | 0.0 | 0.1 | |||||||||
| 00:45 | 7.9 | 96.2 | 1011.5 | 0.0 | NNE | 0.0 | NE | 0.0 | 0.2 | |||||||||
| 00:50 | 8.1 | 95.7 | 1011.4 | 0.0 | NNE | 0.0 | ENE | 0.0 | 0.1 | |||||||||
| 00:55 | 7.9 | 95.3 | 1011.4 | 0.0 | NNE | 0.0 | S | 0.0 | 0.1 | |||||||||
| 01:00 | 7.8 | 95.4 | 1011.4 | 0.0 | NNE | 0.0 | SSE | 0.0 | 0.2 | |||||||||
| 01:05 | 7.9 | 95.6 | 1011.5 | 0.0 | NNE | 0.0 | SE | 0.0 | 0.2 | |||||||||
| 01:10 | 7.9 | 95.6 | 1011.4 | 0.0 | NNE | 0.0 | SSW | 0.0 | 0.1 | |||||||||
| 01:15 | 7.8 | 95.4 | 1011.5 | 0.0 | NNE | 0.0 | SSW | 0.0 | 0.1 | |||||||||
| 01:20 | 7.6 | 95.3 | 1011.5 | 0.0 | NNE | 0.0 | SE | 0.0 | 0.2 | |||||||||
| 01:25 | 7.6 | 95.2 | 1011.5 | 0.0 | NNE | 0.0 | SW | 0.0 | 0.2 | |||||||||
| 01:30 | 7.6 | 95.3 | 1011.6 | 0.0 | NNE | 0.0 | SE | 0.0 | 0.1 | |||||||||
| 01:35 | 7.6 | 95.2 | 1011.7 | 0.0 | NNE | 0.0 | S | 0.0 | 0.2 | |||||||||
| 01:40 | 7.5 | 95.3 | 1011.7 | 0.0 | NNE | 0.0 | WSW | 0.0 | 0.1 | |||||||||
| 01:45 | 7.5 | 95.5 | 1011.7 | 0.0 | NNE | 0.0 | WSW | 0.0 | 0.2 | |||||||||
| 01:50 | 7.4 | 95.4 | 1011.7 | 0.0 | NNE | 0.0 | WNW | 0.0 | 0.2 | |||||||||
| 01:55 | 7.3 | 95.5 | 1011.7 | 0.0 | NNE | 0.0 | SSE | 0.0 | 0.2 | |||||||||
| 02:00 | 7.2 | 95.7 | 1011.7 | 0.0 | NNE | 0.0 | WSW | 0.0 | 0.2 | |||||||||
| 02:05 | 7.2 | 95.9 | 1011.7 | 0.0 | NNE | 0.0 | N | 0.0 | 0.2 | |||||||||
| 02:10 | 7.1 | 95.9 | 1011.8 | 0.0 | NNE | 0.0 | SSW | 0.0 | 0.2 | |||||||||
| 02:15 | 7.1 | 96.1 | 1011.7 | 0.0 | NNE | 0.0 | WNW | 0.0 | 0.2 | |||||||||
| 02:20 | 7.2 | 96.2 | 1011.7 | 0.0 | NNE | 0.0 | NNW | 0.0 | 0.2 | |||||||||
| 02:25 | 7.3 | 96.3 | 1011.7 | 0.0 | NNE | 0.0 | NNE | 0.0 | 0.2 | |||||||||
| 02:30 | 7.3 | 96.0 | 1011.7 | 0.0 | NNE | 0.0 | E | 0.0 | 0.2 | |||||||||
| 02:35 | 7.0 | 95.6 | 1011.7 | 0.0 | NNE | 0.0 | E | 0.0 | 0.2 | |||||||||
| 02:40 | 6.9 | 95.8 | 1011.7 | 0.0 | NNE | 0.0 | SSW | 0.0 | 0.2 | |||||||||
| 02:45 | 6.9 | 96.0 | 1011.6 | 0.0 | NNE | 0.0 | SSW | 0.0 | 0.2 | |||||||||
| 02:50 | 6.9 | 96.2 | 1011.5 | 0.0 | NNE | 0.0 | WNW | 0.0 | 0.2 | |||||||||
| 02:55 | 6.8 | 96.2 | 1011.5 | 0.0 | NNE | 0.0 | NW | 0.0 | 0.1 | |||||||||
| 03:00 | 6.6 | 96.0 | 1011.5 | 0.0 | NNE | 0.0 | SSW | 0.0 | 0.2 | |||||||||
| 03:05 | 6.7 | 96.5 | 1011.5 | 0.0 | NNE | 0.0 | NE | 0.0 | 0.1 | |||||||||
| 03:10 | 6.8 | 96.6 | 1011.5 | 0.0 | NNE | 0.0 | SW | 0.0 | 0.2 | |||||||||
| 03:15 | 6.9 | 96.8 | 1011.4 | 0.0 | NNE | 0.0 | NNW | 0.0 | 0.2 | |||||||||
| 03:20 | 7.0 | 96.9 | 1011.4 | 0.0 | NNE | 0.0 | NE | 0.0 | 0.2 | |||||||||
| 03:25 | 7.1 | 96.8 | 1011.4 | 0.0 | NNE | 0.0 | W | 0.0 | 0.1 | |||||||||
| 03:30 | 7.0 | 96.7 | 1011.4 | 0.0 | NNE | 0.0 | NNE | 0.0 | 0.2 | |||||||||
| 03:35 | 7.1 | 96.7 | 1011.4 | 0.0 | NNE | 0.0 | NE | 0.0 | 0.2 | |||||||||
| 03:40 | 7.1 | 96.6 | 1011.4 | 0.0 | NNE | 0.0 | WNW | 0.0 | 0.2 | |||||||||
| 03:45 | 7.0 | 96.4 | 1011.4 | 0.0 | NNE | 0.0 | NW | 0.0 | 0.1 | |||||||||
| 03:50 | 6.8 | 96.3 | 1011.4 | 0.0 | NNE | 0.0 | WNW | 0.0 | 0.1 | |||||||||
| 03:55 | 6.8 | 96.3 | 1011.4 | 0.0 | NNE | 0.0 | NE | 0.0 | 0.2 | |||||||||
| 04:00 | 6.7 | 96.0 | 1011.4 | 0.0 | NNE | 0.0 | SSW | 0.0 | 0.2 | |||||||||
| 04:05 | 6.5 | 96.0 | 1011.3 | 0.0 | NNE | 0.0 | SSW | 0.0 | 0.2 | |||||||||
| 04:10 | 6.7 | 96.5 | 1011.3 | 0.0 | NNE | 0.0 | SSE | 0.0 | 0.2 | |||||||||
| 04:15 | 6.6 | 96.3 | 1011.3 | 0.0 | NNE | 0.0 | NW | 0.0 | 0.2 | |||||||||
| 04:20 | 6.6 | 96.4 | 1011.3 | 0.0 | NNE | 0.0 | N | 0.0 | 0.3 | |||||||||
| 04:25 | 6.8 | 96.6 | 1011.2 | 0.0 | NNE | 0.0 | NNE | 0.0 | 0.7 | |||||||||
| 04:30 | 6.8 | 96.3 | 1011.2 | 0.0 | NNE | 0.0 | NNW | 0.0 | 1.4 | |||||||||
| 04:35 | 6.5 | 95.8 | 1011.2 | 0.0 | NNE | 0.0 | WSW | 0.0 | 2.3 | |||||||||
| 04:40 | 6.5 | 96.0 | 1011.2 | 0.0 | NNE | 0.0 | WNW | 0.0 | 3.7 | |||||||||
| 04:45 | 6.5 | 96.1 | 1011.2 | 0.0 | NNE | 0.0 | WSW | 0.0 | 5.2 | |||||||||
| 04:50 | 6.3 | 95.8 | 1011.3 | 0.0 | NNE | 0.0 | S | 0.0 | 6.6 | |||||||||
| 04:55 | 6.2 | 95.9 | 1011.3 | 0.0 | NNE | 0.0 | S | 0.0 | 8.2 | |||||||||
| 05:00 | 6.2 | 96.0 | 1011.4 | 0.0 | NNE | 0.0 | SW | 0.0 | 9.6 | |||||||||
| 05:05 | 6.3 | 96.4 | 1011.6 | 0.0 | NNE | 0.0 | N | 0.0 | 10.7 | |||||||||
| 05:10 | 6.3 | 96.4 | 1011.6 | 0.0 | NNE | 0.0 | WNW | 0.0 | 11.7 | |||||||||
| 05:15 | 6.5 | 96.6 | 1011.7 | 0.0 | NNE | 0.0 | NNW | 0.0 | 13.3 | |||||||||
| 05:20 | 6.5 | 96.3 | 1011.7 | 0.0 | NNE | 0.0 | W | 0.0 | 15.4 | |||||||||
| 05:25 | 6.5 | 96.1 | 1011.7 | 0.0 | NNE | 0.0 | S | 0.0 | 18.2 | |||||||||
| 05:30 | 6.5 | 96.1 | 1011.8 | 0.0 | NNE | 0.0 | S | 0.0 | 18.3 | |||||||||
| 05:35 | 6.6 | 96.3 | 1011.8 | 0.0 | NNE | 0.0 | WSW | 0.0 | 19.9 | |||||||||
| 05:40 | 6.7 | 96.4 | 1011.8 | 0.0 | NNE | 0.0 | WNW | 0.0 | 25.6 | |||||||||
| 05:45 | 6.8 | 96.3 | 1011.8 | 0.0 | NNE | 0.0 | NNW | 0.0 | 36.2 | |||||||||
| 05:50 | 7.0 | 96.1 | 1011.8 | 0.0 | NNE | 0.0 | NE | 0.0 | 38.0 | |||||||||
| 05:55 | 7.0 | 95.9 | 1011.8 | 0.0 | NNE | 0.0 | N | 0.0 | 34.4 | |||||||||
| 06:00 | 7.0 | 95.6 | 1011.7 | 0.0 | NNE | 0.0 | W | 0.0 | 33.4 | |||||||||
| 06:05 | 7.0 | 95.7 | 1011.7 | 0.0 | NNE | 0.0 | NNE | 0.0 | 40.9 | |||||||||
| 06:10 | 7.0 | 95.7 | 1011.7 | 0.0 | NNE | 0.0 | NNE | 0.0 | 57.9 | |||||||||
| 06:15 | 7.1 | 95.8 | 1011.8 | 0.0 | NNE | 0.0 | NE | 0.0 | 64.5 | |||||||||
| 06:20 | 7.2 | 95.6 | 1011.8 | 0.0 | NNE | 0.0 | NW | 0.0 | 95.5 | |||||||||
| 06:25 | 7.3 | 95.8 | 1011.8 | 0.0 | NNE | 0.0 | NE | 0.0 | 125.1 | |||||||||
| 06:30 | 7.4 | 95.7 | 1011.9 | 0.0 | NNE | 0.0 | NNE | 0.0 | 129.0 | |||||||||
| 06:35 | 7.5 | 95.5 | 1012.0 | 0.0 | NNE | 0.0 | NNE | 0.0 | 127.0 | |||||||||
| 06:40 | 7.7 | 95.3 | 1012.0 | 0.0 | NNE | 0.0 | W | 0.0 | 136.5 | |||||||||
| 06:45 | 7.8 | 94.8 | 1012.0 | 0.0 | NNE | 0.0 | WSW | 0.0 | 136.6 | |||||||||
| 06:50 | 7.9 | 94.6 | 1012.0 | 0.0 | NNE | 0.0 | NE | 0.0 | 137.6 | |||||||||
| 06:55 | 8.2 | 94.4 | 1012.0 | 0.0 | NNE | 0.0 | ENE | 0.0 | 146.6 | |||||||||
| 07:00 | 8.5 | 94.1 | 1012.0 | 0.0 | NNE | 0.0 | ESE | 0.0 | 151.0 | |||||||||
| 07:05 | 8.6 | 93.3 | 1012.0 | 0.0 | NNE | 0.0 | ESE | 0.0 | 179.7 | |||||||||
| 07:10 | 8.5 | 92.1 | 1012.0 | 0.0 | NNE | 0.0 | ENE | 0.0 | 210.0 | |||||||||
| 07:15 | 8.6 | 91.5 | 1011.9 | 0.0 | NNE | 0.0 | WNW | 0.0 | 223.5 | |||||||||
| 07:20 | 8.8 | 91.3 | 1011.9 | 0.0 | NNE | 0.0 | SSW | 0.0 | 251.5 | |||||||||
| 07:25 | 9.3 | 91.2 | 1011.8 | 0.0 | NNE | 0.0 | ESE | 0.0 | 261.3 | |||||||||
| 07:30 | 9.1 | 89.0 | 1011.7 | 0.0 | NNE | 0.0 | NE | 0.0 | 254.8 | |||||||||
| 07:35 | 9.3 | 89.6 | 1011.7 | 0.0 | NNE | 0.0 | NE | 0.0 | 221.6 | |||||||||
| 07:40 | 9.6 | 88.4 | 1011.6 | 0.0 | NNE | 0.0 | NNE | 0.0 | 177.6 | |||||||||
| 07:45 | 9.9 | 88.1 | 1011.5 | 0.0 | NNE | 0.0 | S | 0.0 | 193.1 | |||||||||
| 07:50 | 10.0 | 87.4 | 1011.4 | 0.0 | NNE | 0.0 | NNE | 0.0 | 104.2 | |||||||||
| 07:55 | 10.1 | 88.0 | 1011.3 | 0.0 | NNE | 0.0 | WNW | 0.0 | 158.0 | |||||||||
| 08:00 | 10.3 | 88.9 | 1011.3 | 0.0 | NNE | 0.0 | WSW | 0.0 | 66.4 | |||||||||
| 08:05 | 10.8 | 88.2 | 1011.4 | 0.0 | NNE | 0.0 | W | 0.0 | 70.1 | |||||||||
| 08:10 | 10.8 | 85.5 | 1011.5 | 0.0 | NNE | 0.0 | ESE | 0.0 | 64.8 | |||||||||
| 08:15 | 10.8 | 85.8 | 1011.4 | 0.0 | NNE | 0.0 | S | 0.0 | 70.4 | |||||||||
| 08:20 | 10.8 | 85.8 | 1011.3 | 0.0 | NNE | 0.0 | ENE | 0.0 | 190.3 | |||||||||
| 08:25 | 10.9 | 86.4 | 1011.3 | 0.0 | NNE | 0.0 | ENE | 0.0 | 270.1 | |||||||||
| 08:30 | 11.1 | 87.2 | 1011.2 | 0.0 | NNE | 0.0 | SE | 0.0 | 570.7 | |||||||||
| 08:35 | 11.3 | 86.5 | 1011.2 | 0.0 | NNE | 0.0 | SSE | 0.0 | 596.1 | |||||||||
| 08:40 | 11.9 | 86.4 | 1011.2 | 0.0 | NNE | 0.0 | SSE | 0.0 | 607.7 | |||||||||
| 08:45 | 12.5 | 84.2 | 1011.2 | 0.0 | NNE | 0.0 | NE | 0.0 | 619.6 | |||||||||
| 08:50 | 13.0 | 81.7 | 1011.2 | 0.0 | NNE | 0.0 | ESE | 0.0 | 628.5 | |||||||||
| 08:55 | 12.8 | 81.6 | 1011.2 | 0.0 | NNE | 0.0 | E | 0.0 | 645.8 | |||||||||
| 09:00 | 13.0 | 80.4 | 1011.2 | 0.0 | NNE | 0.0 | ESE | 0.0 | 641.4 | |||||||||
| 09:05 | 13.3 | 79.9 | 1011.2 | 0.0 | NNE | 0.0 | E | 0.0 | 631.8 | |||||||||
| 09:10 | 13.2 | 79.7 | 1011.2 | 0.0 | NNE | 6.1 | NNE | 0.0 | 726.7 | |||||||||
| 09:15 | 13.5 | 80.3 | 1011.2 | 0.0 | NNE | 0.0 | ENE | 0.0 | 576.3 | |||||||||
| 09:20 | 13.8 | 79.6 | 1011.3 | 0.1 | SE | 8.8 | SE | 0.0 | 286.9 | |||||||||
| 09:25 | 13.6 | 79.7 | 1011.2 | 0.1 | SSE | 8.8 | SE | 0.0 | 542.1 | |||||||||
| 09:30 | 13.9 | 79.0 | 1011.1 | 0.0 | SE | 3.4 | SE | 0.0 | 753.7 | |||||||||
| 09:35 | 14.2 | 77.4 | 1011.1 | 0.0 | NNE | 0.0 | SW | 0.0 | 751.4 | |||||||||
| 09:40 | 14.6 | 76.3 | 1011.0 | 0.5 | SSE | 14.2 | S | 0.0 | 745.6 | |||||||||
| 09:45 | 15.3 | 74.8 | 1011.0 | 0.9 | ESE | 14.2 | ESE | 0.0 | 777.5 | |||||||||
| 09:50 | 16.0 | 72.2 | 1011.0 | 2.0 | SE | 14.2 | SE | 0.0 | 841.0 | |||||||||
| 09:55 | 16.3 | 71.5 | 1011.0 | 0.8 | SSE | 11.5 | SSE | 0.0 | 870.0 | |||||||||
| 10:00 | 16.4 | 70.4 | 1011.1 | 1.6 | SE | 14.2 | SE | 0.0 | 917.0 | |||||||||
| 10:05 | 16.4 | 71.4 | 1011.0 | 8.3 | SSE | 19.6 | SSE | 0.0 | 893.0 | |||||||||
| 10:10 | 16.3 | 71.2 | 1011.0 | 6.2 | SE | 16.9 | SE | 0.0 | 824.0 | |||||||||
| 10:15 | 16.3 | 69.7 | 1011.0 | 7.5 | SE | 22.3 | SE | 0.0 | 774.3 | |||||||||
| 10:20 | 16.5 | 69.5 | 1011.0 | 7.0 | SE | 22.3 | SE | 0.0 | 532.0 | |||||||||
| 10:25 | 16.0 | 69.0 | 1011.0 | 8.7 | ESE | 19.6 | SSE | 0.0 | 635.3 | |||||||||
| 10:30 | 15.6 | 70.3 | 1010.9 | 7.0 | E | 16.9 | NE | 0.0 | 363.6 | |||||||||
| 10:35 | 15.0 | 73.1 | 1010.9 | 8.6 | E | 22.3 | E | 0.0 | 675.3 | |||||||||
| 10:40 | 15.1 | 75.6 | 1010.9 | 6.9 | ESE | 22.3 | ENE | 0.0 | 753.3 | |||||||||
| 10:45 | 16.1 | 73.7 | 1010.9 | 6.6 | SE | 14.2 | SSE | 0.0 | 840.0 | |||||||||
| 10:50 | 16.3 | 71.5 | 1011.0 | 8.8 | ESE | 25.0 | ESE | 0.0 | 590.5 | |||||||||
| 10:55 | 16.0 | 72.7 | 1010.9 | 6.3 | ESE | 16.9 | ENE | 0.0 | 419.3 | |||||||||
| 11:00 | 16.3 | 73.4 | 1010.9 | 7.0 | SE | 16.9 | SSE | 0.0 | 788.8 | |||||||||
| 11:05 | 16.7 | 71.9 | 1010.8 | 6.7 | SE | 16.9 | SE | 0.0 | 436.2 | |||||||||
| 11:10 | 16.3 | 72.1 | 1010.8 | 8.6 | SE | 19.6 | SSE | 0.0 | 271.3 | |||||||||
| 11:15 | 16.0 | 72.8 | 1010.8 | 7.5 | SE | 16.9 | SE | 0.0 | 288.6 | |||||||||
| 11:20 | 15.8 | 73.1 | 1010.8 | 6.1 | SSE | 16.9 | ESE | 0.0 | 265.2 | |||||||||
| 11:25 | 15.6 | 73.7 | 1010.8 | 10.0 | SE | 22.3 | ESE | 0.0 | 176.1 | |||||||||
| 11:30 | 15.2 | 75.3 | 1010.8 | 9.2 | SE | 19.6 | ESE | 0.0 | 215.1 | |||||||||
| 11:35 | 15.2 | 76.1 | 1010.7 | 7.2 | SE | 16.9 | S | 0.0 | 249.2 | |||||||||
| 11:40 | 15.5 | 75.8 | 1010.7 | 8.7 | SSE | 22.3 | SE | 0.0 | 577.6 | |||||||||
| 11:45 | 16.3 | 74.3 | 1010.6 | 8.9 | SSE | 19.6 | ESE | 0.0 | 868.0 | |||||||||
| 11:50 | 16.8 | 70.3 | 1010.6 | 9.5 | SSE | 19.6 | SSE | 0.0 | 517.5 | |||||||||
| 11:55 | 16.6 | 69.9 | 1010.6 | 10.2 | SSE | 19.6 | SE | 0.0 | 500.9 | |||||||||
| 12:00 | 16.4 | 70.6 | 1010.5 | 9.9 | SE | 22.3 | SE | 0.0 | 381.8 | |||||||||
| 12:05 | 16.1 | 71.9 | 1010.6 | 12.3 | SE | 22.3 | E | 0.0 | 499.0 | |||||||||
| 12:10 | 16.4 | 71.7 | 1010.6 | 9.4 | SSE | 25.0 | S | 0.0 | 314.0 | |||||||||
| 12:15 | 16.2 | 72.5 | 1010.5 | 8.3 | SSE | 19.6 | SSE | 0.0 | 447.2 | |||||||||
| 12:20 | 16.3 | 72.4 | 1010.6 | 8.8 | SSE | 16.9 | SE | 0.0 | 414.4 | |||||||||
| 12:25 | 16.0 | 71.6 | 1010.6 | 8.6 | SE | 19.6 | S | 0.0 | 301.1 | |||||||||
| 12:30 | 16.2 | 72.2 | 1010.4 | 6.4 | SE | 16.9 | SE | 0.0 | 357.3 | |||||||||
| 12:35 | 16.2 | 71.1 | 1010.3 | 10.3 | SE | 19.6 | SSE | 0.0 | 368.0 | |||||||||
| 12:40 | 16.1 | 70.3 | 1010.4 | 6.9 | SE | 14.2 | SE | 0.0 | 298.6 | |||||||||
| 12:45 | 16.2 | 71.1 | 1010.4 | 7.2 | SSE | 16.9 | SSW | 0.0 | 596.5 | |||||||||
| 12:50 | 16.6 | 69.3 | 1010.3 | 6.8 | SSE | 14.2 | ENE | 0.0 | 567.4 | |||||||||
| 12:55 | 16.7 | 67.3 | 1010.4 | 7.5 | SSE | 16.9 | SSE | 0.0 | 405.4 | |||||||||
| 13:00 | 16.6 | 67.7 | 1010.3 | 7.5 | SSE | 16.9 | SSE | 0.0 | 276.2 | |||||||||
| 13:05 | 16.5 | 68.7 | 1010.2 | 5.1 | S | 14.2 | SSW | 0.0 | 256.8 | |||||||||
| 13:10 | 16.3 | 69.7 | 1010.2 | 5.8 | SSE | 14.2 | SSE | 0.0 | 342.7 | |||||||||
| 13:15 | 16.6 | 69.0 | 1010.2 | 3.9 | S | 8.8 | SSE | 0.0 | 382.8 | |||||||||
| 13:20 | 16.7 | 66.5 | 1010.2 | 4.9 | SE | 11.5 | SSE | 0.0 | 230.5 | |||||||||
| 13:25 | 16.3 | 65.9 | 1010.1 | 2.1 | E | 8.8 | NNE | 0.0 | 74.3 | |||||||||
| 13:30 | 16.1 | 65.9 | 1010.0 | 3.7 | SSE | 11.5 | SSE | 0.0 | 49.0 | |||||||||
| 13:35 | 15.9 | 64.1 | 1009.9 | 6.2 | SE | 22.3 | SSE | 0.0 | 55.3 | |||||||||
| 13:40 | 15.8 | 65.2 | 1009.9 | 7.4 | E | 22.3 | SE | 0.0 | 89.3 | |||||||||
| 13:45 | 15.8 | 68.5 | 1009.9 | 3.7 | SW | 14.2 | SW | 0.0 | 137.5 | |||||||||
| 13:50 | 15.9 | 68.3 | 1009.8 | 6.5 | W | 11.5 | W | 0.0 | 179.7 | |||||||||
| 13:55 | 16.0 | 66.9 | 1009.7 | 0.4 | SSW | 6.1 | SW | 0.0 | 128.7 | |||||||||
| 14:00 | 16.1 | 66.7 | 1009.7 | 2.6 | S | 8.8 | S | 0.0 | 297.9 | |||||||||
| 14:05 | 16.6 | 65.5 | 1009.7 | 6.6 | SE | 14.2 | ESE | 0.0 | 779.8 | |||||||||
| 14:10 | 17.6 | 63.0 | 1009.6 | 5.3 | SSE | 14.2 | SE | 0.0 | 741.7 | |||||||||
| 14:15 | 18.1 | 61.3 | 1009.6 | 6.5 | SE | 19.6 | SE | 0.0 | 458.5 | |||||||||
| 14:20 | 17.4 | 62.1 | 1009.6 | 13.1 | S | 27.7 | E | 0.0 | 244.2 | |||||||||
| 14:25 | 16.8 | 65.6 | 1009.5 | 10.2 | SE | 25.0 | SSE | 0.0 | 180.9 | |||||||||
| 14:30 | 16.5 | 66.2 | 1009.4 | 10.0 | SE | 25.0 | SSE | 0.0 | 218.0 | |||||||||
| 14:35 | 16.4 | 67.3 | 1009.4 | 7.6 | SSE | 19.6 | SW | 0.0 | 230.9 | |||||||||
| 14:40 | 16.4 | 68.4 | 1009.4 | 9.5 | SSE | 22.3 | SE | 0.0 | 355.1 | |||||||||
| 14:45 | 16.7 | 66.8 | 1009.2 | 9.1 | SSE | 19.6 | SSW | 0.0 | 566.9 | |||||||||
| 14:50 | 17.2 | 65.2 | 1009.2 | 8.8 | SSW | 16.9 | SSW | 0.0 | 634.3 | |||||||||
| Màxima | 18.1 | 96.9 | 1012.0 | 13.1 | S | 27.7 | E | 0.0 | 917.0 | |||||||||
| Mínima | 6.2 | 61.3 | 1009.2 | |||||||||||||||
| Total | 0.0 | |||||||||||||||||